Wind_Speed
34 33 33 32 31 30 29 28 27 25 24 23 21 20 19 18 18 17 16 15 15 15 14 14 14 14 14 13 13 12 12 12 12 12 12 11 11 11 12 12 12 12 12
36 35 34 34 32 32 31 30 29 27 26 25 24 22 21 20 19 19 18 17 17 16 16 15 15 15 15 15 14 14 14 14 14 13 13 12 12 12 12 12 12 12 12
38 37 36 35 34 33 33 32 30 29 28 27 26 25 24 22 21 20 19 19 18 18 17 17 17 16 16 16 16 15 15 15 15 14 14 14 13 13 13 13 13 13 13
39 39 37 36 35 35 34 33 32 31 30 29 28 26 25 24 23 22 21 20 19 19 19 18 18 18 17 17 17 16 16 16 16 15 15 15 14 14 14 14 14 14 14
40 39 38 37 36 36 35 35 34 33 32 31 30 28 27 26 25 23 22 21 21 20 20 20 19 19 18 18 18 18 17 17 17 17 17 16 16 16 16 15 15 15 15
41 40 40 39 38 37 36 36 35 35 34 32 31 30 29 28 27 26 25 24 23 22 21 21 21 20 20 20 19 19 19 19 19 18 18 18 18 17 17 17 17 17 17
43 42 41 40 39 39 38 37 36 35 35 34 33 32 31 30 29 28 27 26 24 24 23 23 22 22 22 22 21 21 21 21 20 20 19 19 19 19 18 18 18 19 19
44 43 42 42 41 40 40 39 38 37 36 35 34 34 33 32 30 30 29 27 26 25 25 25 24 24 23 23 22 22 23 22 22 21 21 21 21 20 20 21 21 21 21
46 45 44 44 43 42 42 41 40 39 38 37 36 36 35 34 33 32 31 30 29 28 27 27 26 26 25 24 24 24 23 23 23 23 22 22 22 22 22 23 23 23 24
46 45 46 46 45 43 43 43 42 42 41 39 38 38 38 37 36 34 33 32 31 30 30 29 29 28 27 27 26 26 25 25 25 25 24 24 24 25 25 25 25 26 26
48 46 46 46 47 46 45 45 44 44 44 42 40 39 39 39 38 37 35 34 34 33 32 32 31 30 29 29 28 28 28 28 27 27 27 27 27 27 27 27 28 28 28
50 48 47 47 48 46 46 46 46 45 45 44 43 42 41 40 39 39 38 36 35 34 33 33 33 32 31 31 30 30 30 30 30 30 30 30 30 30 30 30 30 31 31
51 50 50 48 48 47 46 46 47 46 47 46 44 43 43 43 42 40 40 38 37 36 35 35 34 34 33 33 33 32 32 33 33 32 32 32 32 33 32 33 33 33 33
53 52 52 50 50 49 47 47 47 47 47 47 45 45 45 44 44 43 42 41 39 38 37 36 36 35 35 34 34 34 34 34 34 34 34 34 34 35 35 35 35 35 35
54 54 53 51 51 50 49 48 48 49 50 49 47 46 46 46 45 45 44 43 42 40 38 37 38 37 37 36 36 35 35 35 35 35 35 36 36 36 36 36 36 36 36
54 54 54 52 52 52 52 50 48 50 51 51 50 48 47 47 47 46 46 45 45 42 40 39 39 39 38 38 38 37 37 37 37 37 37 37 37 37 37 37 37 37 37
54 54 54 54 53 53 53 52 51 50 51 52 53 51 50 50 49 48 48 47 46 45 43 42 41 41 40 40 39 39 39 38 38 38 38 38 38 38 38 38 38 38 38
56 55 55 55 54 53 53 53 52 51 51 53 54 53 51 51 51 50 49 48 48 47 45 43 42 42 41 41 40 40 40 40 39 39 39 39 39 39 39 39 39 39 40
56 55 55 55 55 55 54 53 54 53 52 52 53 53 53 52 52 51 50 49 49 48 47 45 43 42 42 42 41 41 41 40 40 40 40 40 40 39 39 40 40 40 41
55 56 55 55 56 55 55 54 55 54 53 52 52 52 53 54 53 52 52 51 50 50 49 47 45 44 43 43 42 42 42 41 41 41 40 41 41 40 40 40 41 42 42
54 55 55 54 55 56 56 56 56 55 54 54 53 51 51 52 53 52 52 52 51 51 50 49 48 47 46 45 44 44 43 43 43 42 42 42 42 42 42 42 42 43 43
54 54 55 55 55 55 56 56 56 56 55 55 54 53 52 52 52 53 52 52 52 52 52 50 48 47 46 46 46 45 44 44 43 43 43 43 44 43 43 43 44 44 44
53 54 55 55 55 55 55 55 56 56 55 55 54 54 53 53 53 53 52 52 52 51 51 51 50 48 47 47 47 46 46 45 44 43 44 44 44 44 44 44 44 45 45
52 52 53 53 54 55 55 55 55 56 56 56 56 55 54 53 53 54 53 52 52 52 51 52 51 50 49 48 48 47 46 46 46 45 45 45 45 45 45 45 45 45 46
51 53 53 53 53 54 55 56 56 56 56 56 55 55 55 54 53 54 54 53 52 52 52 52 53 52 51 50 49 48 48 48 46 46 46 46 47 47 47 47 46 46 47
49 51 52 53 53 54 55 56 56 56 55 55 55 55 55 54 54 55 55 54 53 52 52 52 52 53 52 52 51 50 49 49 48 47 47 48 48 48 48 48 48 48 47
Wind_Direction
239 239 238 238 238 238 238 239 240 240 241 242 243 246 249 250 251 254 257 259 260 261 262 263 265 268 270 274 275 278 283 286 288 292 297 300 304 308 312 317 321 323 323
239 240 240 239 239 238 239 239 240 241 241 242 244 246 248 250 252 255 258 260 261 261 261 262 265 268 269 272 273 275 278 281 284 287 291 294 298 304 308 312 315 317 318
239 240 241 240 239 239 239 239 239 240 241 243 245 246 248 250 252 254 257 259 260 260 261 262 263 267 269 270 273 273 276 278 280 283 286 290 293 297 301 307 310 312 314
240 240 240 240 239 239 239 239 240 240 241 243 245 246 247 250 252 254 256 258 259 260 260 261 262 265 268 269 271 272 274 276 279 281 284 286 289 293 297 301 303 306 308
239 239 238 240 239 239 239 240 240 240 240 242 243 245 246 248 251 253 255 257 259 260 260 260 261 263 266 268 270 272 273 275 277 280 282 283 286 289 293 296 299 301 304
238 237 237 238 239 239 239 240 241 241 240 241 242 244 246 248 249 253 255 257 259 260 261 261 261 263 265 268 269 271 271 272 275 277 279 280 283 286 289 292 295 297 300
238 237 236 237 238 239 239 240 241 241 241 241 243 245 246 248 250 252 255 257 258 259 261 261 262 263 265 267 269 271 271 272 273 275 276 278 280 283 286 288 292 294 297
236 236 237 236 237 239 240 240 241 241 241 241 243 245 246 247 250 252 253 255 257 258 260 261 262 263 264 266 268 269 270 271 272 273 274 276 278 280 282 285 288 291 293
236 235 236 238 238 239 240 241 242 241 240 241 243 245 246 247 249 250 252 254 256 258 259 261 262 262 262 264 265 267 270 271 272 271 272 275 278 279 281 283 285 288 291
238 237 237 237 238 238 239 241 242 241 241 241 243 245 246 248 249 251 252 253 255 257 258 260 261 262 262 263 265 267 269 271 272 271 271 273 276 279 280 281 284 286 289
240 239 238 238 239 240 240 240 241 242 241 242 244 246 247 248 250 251 253 253 254 256 258 259 261 261 262 263 265 266 268 270 272 272 272 273 275 277 280 281 283 285 288
241 240 240 240 240 240 241 241 241 242 242 242 244 246 248 249 250 251 252 253 255 256 257 258 260 262 262 263 264 266 267 269 270 272 273 272 273 276 279 281 283 285 287
240 240 241 242 242 241 241 242 242 242 242 242 244 246 247 248 250 251 252 253 254 256 257 258 259 260 261 262 264 266 266 267 269 270 271 272 273 275 277 279 282 284 286
241 241 242 242 243 242 242 243 242 242 242 243 244 246 247 248 250 251 251 252 254 255 256 257 258 260 261 262 263 265 267 267 268 269 270 271 273 275 276 278 281 283 285
241 241 242 243 244 243 243 244 244 243 242 243 244 245 247 248 249 250 251 252 253 255 255 257 258 259 261 261 262 264 266 267 267 269 270 272 274 275 277 279 280 282 285
241 241 242 243 244 244 244 244 244 244 242 243 244 245 246 247 249 251 251 252 253 254 255 256 257 258 260 261 262 263 265 266 268 269 271 272 274 275 276 278 279 281 284
243 242 242 244 245 245 245 245 245 245 243 243 244 245 246 247 248 250 251 252 252 254 255 256 257 258 260 261 262 263 265 266 268 270 271 272 273 275 276 278 279 280 283
244 243 243 243 244 245 245 244 244 245 245 244 244 245 245 246 248 249 250 251 252 253 256 256 257 258 259 260 262 263 265 266 268 270 272 273 273 275 276 277 278 280 283
243 243 243 243 243 244 245 244 244 245 245 245 245 245 245 246 247 248 249 251 252 253 255 256 256 258 259 260 262 264 265 265 267 270 271 272 273 275 276 278 279 280 282
244 243 243 244 243 243 244 245 246 246 245 245 245 246 246 246 247 248 249 250 251 252 253 255 256 257 259 260 262 265 265 265 267 269 271 272 273 274 276 278 280 281 283
245 244 244 245 244 244 244 246 246 247 246 246 246 246 245 246 247 248 248 249 250 251 253 255 257 258 259 260 262 264 265 265 266 269 270 272 273 274 275 277 280 282 283
245 246 246 246 245 245 245 246 247 247 247 248 247 247 247 246 247 248 248 248 249 251 253 255 257 258 258 259 261 263 265 266 267 269 270 271 273 274 275 277 279 281 283
246 246 247 247 246 246 246 246 246 246 247 248 249 249 249 249 249 248 247 247 249 250 252 254 256 257 258 259 260 262 264 265 267 269 270 271 273 275 276 278 280 281 283
246 246 247 247 247 247 247 247 247 247 248 248 249 249 250 251 251 250 250 250 251 251 253 254 256 258 259 259 260 262 263 265 267 269 271 273 274 276 278 279 280 280 282
248 248 248 248 248 247 247 248 248 248 248 248 249 249 249 250 251 251 251 251 252 254 254 256 257 258 259 260 261 263 263 265 266 268 271 272 274 276 278 278 278 280 281
249 249 249 249 249 249 248 248 248 248 248 248 248 248 248 249 250 252 252 251 253 254 254 255 257 258 259 261 262 263 264 264 266 268 270 272 274 276 278 278 278 280 282
Height
5808 5811 5814 5817 5820 5823 5826 5828 5831 5833 5835 5837 5839 5841 5842 5843 5845 5846 5847 5847 5848 5849 5849 5850 5850 5851 5851 5851 5851 5851 5851 5851 5850 5850 5849 5849 5848 5847 5846 5845 5844 5843 5841
5801 5804 5807 5810 5813 5817 5819 5822 5825 5828 5830 5832 5834 5836 5838 5839 5841 5842 5843 5844 5845 5845 5846 5846 5847 5847 5847 5848 5848 5848 5848 5848 5848 5847 5847 5846 5845 5845 5844 5843 5842 5840 5839
5793 5796 5799 5803 5806 5810 5813 5816 5819 5822 5824 5827 5829 5831 5833 5835 5836 5838 5839 5840 5841 5841 5842 5843 5843 5844 5844 5844 5844 5845 5845 5845 5844 5844 5844 5843 5843 5842 5841 5840 5839 5838 5837
5784 5788 5791 5795 5798 5802 5805 5809 5812 5815 5818 5821 5824 5826 5828 5830 5831 5833 5834 5835 5836 5837 5838 5839 5839 5840 5840 5840 5841 5841 5841 5841 5841 5841 5840 5840 5839 5839 5838 5837 5836 5835 5834
5775 5779 5783 5787 5790 5794 5798 5801 5805 5808 5812 5815 5817 5820 5822 5824 5826 5828 5829 5831 5832 5833 5833 5834 5835 5836 5836 5836 5837 5837 5837 5837 5837 5837 5836 5836 5836 5835 5834 5834 5833 5832 5831
5766 5770 5774 5779 5782 5786 5790 5794 5797 5801 5805 5808 5811 5814 5816 5818 5820 5822 5824 5825 5827 5828 5829 5830 5830 5831 5831 5832 5832 5832 5832 5832 5832 5832 5832 5832 5831 5831 5831 5830 5829 5828 5827
5757 5761 5766 5770 5774 5778 5782 5786 5789 5793 5797 5801 5804 5807 5809 5811 5814 5816 5818 5820 5821 5822 5823 5824 5825 5826 5827 5827 5827 5827 5827 5827 5828 5827 5827 5827 5827 5827 5826 5826 5825 5824 5823
5747 5752 5757 5761 5765 5769 5773 5777 5781 5785 5789 5793 5797 5800 5802 5805 5807 5810 5812 5814 5815 5817 5818 5819 5820 5821 5821 5822 5822 5822 5822 5822 5822 5822 5822 5822 5822 5822 5821 5821 5820 5819 5818
5737 5742 5747 5752 5756 5760 5764 5768 5773 5777 5781 5785 5788 5792 5795 5798 5800 5803 5805 5807 5809 5810 5812 5813 5814 5815 5816 5816 5816 5817 5816 5817 5817 5817 5817 5817 5817 5816 5816 5815 5814 5814 5812
5727 5731 5736 5741 5746 5750 5754 5759 5763 5768 5772 5776 5779 5783 5787 5790 5792 5795 5798 5799 5801 5803 5804 5806 5807 5808 5809 5810 5810 5810 5811 5811 5811 5811 5811 5811 5811 5810 5810 5809 5809 5808 5807
5716 5721 5726 5731 5735 5740 5745 5749 5753 5757 5762 5766 5770 5774 5777 5780 5783 5786 5789 5792 5794 5795 5797 5798 5799 5800 5802 5802 5803 5804 5804 5804 5804 5804 5805 5804 5804 5804 5803 5803 5802 5801 5800
5706 5711 5715 5720 5725 5730 5734 5738 5743 5747 5752 5756 5760 5764 5768 5771 5774 5777 5780 5782 5785 5787 5788 5789 5791 5792 5793 5795 5795 5796 5797 5797 5797 5797 5797 5797 5797 5797 5796 5795 5795 5794 5793
5695 5700 5705 5710 5714 5719 5723 5728 5732 5736 5741 5745 5750 5754 5757 5761 5765 5767 5770 5773 5775 5777 5779 5781 5782 5783 5785 5786 5787 5788 5788 5789 5789 5789 5789 5789 5789 5789 5788 5788 5787 5786 5785
5684 5688 5694 5698 5703 5708 5712 5717 5721 5725 5730 5734 5739 5743 5747 5750 5754 5757 5760 5763 5766 5768 5770 5772 5773 5774 5776 5777 5778 5779 5780 5780 5780 5780 5780 5781 5781 5780 5780 5779 5778 5777 5776
5672 5677 5682 5687 5691 5696 5701 5705 5710 5714 5719 5723 5728 5732 5736 5739 5743 5747 5750 5753 5756 5758 5761 5763 5764 5765 5766 5768 5769 5770 5770 5771 5771 5771 5771 5772 5771 5771 5771 5770 5769 5768 5767
5659 5664 5669 5674 5679 5684 5689 5693 5698 5702 5707 5711 5716 5720 5725 5728 5732 5735 5739 5742 5745 5748 5750 5753 5754 5756 5757 5758 5759 5760 5761 5761 5762 5762 5762 5762 5762 5761 5761 5760 5760 5759 5758
5647 5652 5657 5662 5667 5671 5676 5681 5686 5690 5695 5699 5703 5708 5713 5716 5720 5724 5727 5730 5734 5737 5739 5742 5744 5746 5747 5748 5749 5750 5751 5752 5752 5752 5752 5752 5752 5751 5751 5750 5750 5749 5748
5634 5639 5644 5649 5654 5659 5663 5668 5673 5677 5682 5687 5691 5695 5700 5704 5708 5712 5715 5719 5722 5725 5728 5731 5733 5735 5736 5738 5739 5740 5741 5742 5742 5742 5742 5742 5742 5741 5741 5740 5739 5738 5737
5621 5626 5631 5636 5641 5646 5650 5655 5660 5664 5669 5674 5678 5683 5687 5691 5695 5699 5703 5707 5711 5714 5716 5719 5722 5724 5726 5727 5728 5730 5730 5731 5732 5732 5732 5732 5731 5731 5730 5730 5729 5728 5726
5607 5612 5617 5623 5628 5633 5637 5642 5647 5651 5656 5661 5665 5670 5674 5679 5683 5687 5691 5695 5698 5701 5705 5708 5711 5713 5715 5716 5717 5719 5720 5721 5721 5721 5721 5721 5721 5721 5720 5719 5718 5717 5716
5594 5599 5604 5609 5614 5619 5624 5629 5633 5638 5643 5648 5652 5657 5661 5666 5670 5674 5678 5683 5686 5689 5692 5695 5699 5701 5703 5705 5707 5708 5708 5709 5710 5710 5710 5711 5710 5710 5709 5708 5707 5706 5704
5581 5585 5590 5595 5600 5606 5610 5615 5620 5625 5629 5634 5639 5644 5648 5652 5657 5661 5665 5669 5673 5677 5680 5683 5686 5689 5691 5693 5695 5696 5697 5698 5699 5700 5699 5699 5699 5699 5698 5697 5695 5694 5692
5568 5572 5576 5581 5587 5592 5596 5601 5606 5611 5616 5621 5626 5630 5635 5639 5643 5647 5652 5656 5660 5664 5667 5671 5674 5676 5679 5681 5683 5684 5685 5686 5687 5687 5687 5688 5687 5687 5686 5685 5683 5682 5680
5554 5558 5563 5568 5573 5578 5582 5587 5591 5596 5601 5607 5612 5617 5621 5625 5629 5634 5638 5642 5647 5651 5654 5658 5661 5664 5666 5667 5669 5671 5672 5673 5674 5674 5674 5675 5675 5675 5674 5673 5671 5669 5667
5541 5545 5549 5554 5558 5563 5568 5572 5577 5582 5587 5592 5598 5603 5607 5612 5616 5620 5625 5630 5634 5638 5640 5644 5647 5650 5652 5654 5656 5657 5659 5660 5661 5662 5662 5663 5663 5662 5662 5660 5658 5656 5655
5528 5531 5535 5539 5544 5548 5553 5558 5562 5568 5574 5579 5584 5589 5594 5598 5602 5605 5610 5615 5620 5624 5627 5630 5633 5636 5638 5640 5642 5644 5646 5647 5648 5649 5649 5650 5649 5648 5649 5648 5646 5644 5642